When you browse on this site, cookies collect data to enhance your experience and personalize the content and advertising you see.
Visit our Privacy Policy to learn more. By continuing to use the site, you agree to this use of cookies and data.
  • In Romania
  • List of Countries
  • For 7 days
  • Water Temperature
  • Weather Map
  • Weather Widgets
  • user-avatar
    Login

    Hourly Weather Shusha

    Today, 26 August, Monday

    Time Temperature Precipitation Wind Pressure Humidity
    00:00 +20°C° 0 mm 1 mps 661 mmHg 48%
    01:00 +20°C° 0 mm 1 mps 661 mmHg 48%
    02:00 +19°C° 0 mm 1 mps 661 mmHg 48%
    03:00 +19°C° 0 mm 1 mps 660 mmHg 50%
    04:00 +19°C° 0 mm 1 mps 661 mmHg 49%
    05:00 +19°C° 0 mm 1 mps 661 mmHg 48%
    06:00 +17°C° 0 mm 0 mps 661 mmHg 48%
    07:00 +21°C° 0 mm 1 mps 662 mmHg 41%
    08:00 +23°C° 0 mm 2 mps 662 mmHg 34%
    09:00 +25°C° 0 mm 2 mps 663 mmHg 27%
    10:00 +26°C° 0 mm 3 mps 663 mmHg 25%
    11:00 +28°C° 0 mm 3 mps 663 mmHg 23%
    12:00 +29°C° 0 mm 3 mps 663 mmHg 22%
    13:00 +29°C° 0 mm 4 mps 663 mmHg 22%
    14:00 +29°C° 0 mm 4 mps 662 mmHg 22%
    15:00 +29°C° 0 mm 4 mps 662 mmHg 22%
    16:00 +27°C° 0 mm 4 mps 662 mmHg 25%
    17:00 +26°C° 0 mm 4 mps 662 mmHg 28%
    18:00 +25°C° 0 mm 4 mps 662 mmHg 31%
    19:00 +22°C° 0.1 mm 3 mps 662 mmHg 38%
    20:00 +20°C° 0.1 mm 2 mps 662 mmHg 46%
    21:00 +18°C° 0.1 mm 2 mps 662 mmHg 54%
    22:00 +17°C° 0 mm 2 mps 662 mmHg 53%
    23:00 +17°C° 0 mm 2 mps 662 mmHg 52%

    Tomorrow, 27 August, Tuesday

    Time Temperature Precipitation Wind Pressure Humidity
    00:00 +17°C° 0 mm 2 mps 662 mmHg 52%
    01:00 +17°C° 0 mm 2 mps 662 mmHg 51%
    02:00 +16°C° 0 mm 2 mps 662 mmHg 51%
    03:00 +16°C° 0 mm 2 mps 662 mmHg 50%
    04:00 +16°C° 0 mm 2 mps 662 mmHg 50%
    05:00 +16°C° 0 mm 2 mps 662 mmHg 50%
    06:00 +16°C° 0 mm 1 mps 662 mmHg 50%
    07:00 +18°C° 0 mm 2 mps 662 mmHg 46%
    08:00 +20°C° 0 mm 2 mps 663 mmHg 42%
    09:00 +22°C° 0 mm 3 mps 663 mmHg 38%
    10:00 +24°C° 0 mm 3 mps 663 mmHg 36%
    11:00 +25°C° 0 mm 3 mps 663 mmHg 33%
    12:00 +27°C° 0 mm 3 mps 663 mmHg 31%
    13:00 +27°C° 0 mm 3 mps 662 mmHg 31%
    14:00 +27°C° 0 mm 3 mps 662 mmHg 31%
    15:00 +28°C° 0 mm 4 mps 661 mmHg 31%
    16:00 +26°C° 0 mm 3 mps 661 mmHg 34%
    17:00 +25°C° 0 mm 2 mps 660 mmHg 38%
    18:00 +24°C° 0 mm 2 mps 660 mmHg 41%
    19:00 +21°C° 0 mm 2 mps 660 mmHg 46%
    20:00 +21°C° 0 mm 1 mps 660 mmHg 50%
    21:00 +19°C° 0 mm 1 mps 659 mmHg 55%
    22:00 +19°C° 0 mm 1 mps 659 mmHg 56%
    23:00 +19°C° 0 mm 1 mps 659 mmHg 56%

    Day after tomorrow, 28 August, Wednesday

    Time Temperature Precipitation Wind Pressure Humidity
    00:00 +18°C° 0 mm 2 mps 659 mmHg 56%
    01:00 +17°C° 0 mm 2 mps 659 mmHg 57%
    02:00 +18°C° 0 mm 1 mps 659 mmHg 58%
    03:00 +18°C° 0 mm 1 mps 659 mmHg 58%
    04:00 +18°C° 0 mm 1 mps 659 mmHg 58%
    05:00 +18°C° 0 mm 1 mps 660 mmHg 58%
    06:00 +18°C° 0 mm 1 mps 660 mmHg 57%
    07:00 +20°C° 0 mm 1 mps 661 mmHg 52%
    08:00 +21°C° 0 mm 2 mps 661 mmHg 46%
    09:00 +24°C° 0 mm 2 mps 662 mmHg 40%
    10:00 +25°C° 0 mm 3 mps 662 mmHg 38%
    11:00 +26°C° 0 mm 3 mps 662 mmHg 37%
    12:00 +27°C° 0 mm 3 mps 662 mmHg 35%
    13:00 +28°C° 0 mm 3 mps 662 mmHg 34%
    14:00 +28°C° 0 mm 3 mps 661 mmHg 33%
    15:00 +28°C° 0 mm 4 mps 661 mmHg 32%
    16:00 +27°C° 0 mm 3 mps 661 mmHg 34%
    17:00 +26°C° 0 mm 3 mps 661 mmHg 37%
    18:00 +25°C° 0 mm 2 mps 660 mmHg 40%
    19:00 +23°C° 0 mm 2 mps 660 mmHg 44%
    20:00 +20°C° 0 mm 2 mps 660 mmHg 49%
    21:00 +19°C° 0 mm 1 mps 660 mmHg 54%
    22:00 +19°C° 0 mm 1 mps 660 mmHg 54%
    23:00 +19°C° 0 mm 1 mps 660 mmHg 54%

    29 August, Thursday

    Time Temperature Precipitation Wind Pressure Humidity
    00:00 +18°C° 0 mm 1 mps 660 mmHg 54%
    01:00 +18°C° 0 mm 1 mps 660 mmHg 55%
    02:00 +18°C° 0 mm 1 mps 660 mmHg 55%
    03:00 +18°C° 0 mm 1 mps 660 mmHg 56%
    04:00 +18°C° 0 mm 1 mps 660 mmHg 55%
    05:00 +18°C° 0 mm 1 mps 660 mmHg 55%
    06:00 +18°C° 0 mm 1 mps 661 mmHg 54%
    07:00 +20°C° 0 mm 1 mps 661 mmHg 49%
    08:00 +21°C° 0 mm 2 mps 661 mmHg 43%
    09:00 +24°C° 0 mm 2 mps 662 mmHg 37%
    10:00 +25°C° 0 mm 3 mps 662 mmHg 36%
    11:00 +26°C° 0 mm 3 mps 662 mmHg 35%
    12:00 +27°C° 0 mm 3 mps 662 mmHg 33%
    13:00 +28°C° 0.1 mm 3 mps 661 mmHg 33%
    14:00 +28°C° 0.1 mm 3 mps 661 mmHg 33%
    15:00 +28°C° 0.1 mm 4 mps 661 mmHg 33%
    16:00 +26°C° 0 mm 4 mps 660 mmHg 37%
    17:00 +25°C° 0 mm 4 mps 660 mmHg 42%
    18:00 +22°C° 0 mm 4 mps 660 mmHg 47%
    19:00 +20°C° 0 mm 3 mps 660 mmHg 55%
    20:00 +19°C° 0 mm 3 mps 660 mmHg 64%
    21:00 +17°C° 0 mm 2 mps 660 mmHg 72%
    22:00 +17°C° 0.1 mm 2 mps 660 mmHg 76%
    23:00 +16°C° 0.1 mm 2 mps 660 mmHg 79%

    30 August, Friday

    Time Temperature Precipitation Wind Pressure Humidity
    00:00 +16°C° 0.1 mm 2 mps 660 mmHg 83%
    01:00 +16°C° 0.1 mm 1 mps 660 mmHg 85%
    02:00 +15°C° 0.1 mm 1 mps 659 mmHg 88%
    03:00 +14°C° 0.1 mm 1 mps 659 mmHg 90%
    04:00 +14°C° 0.1 mm 1 mps 659 mmHg 91%
    05:00 +14°C° 0.1 mm 1 mps 659 mmHg 91%
    06:00 +14°C° 0.1 mm 1 mps 659 mmHg 92%
    07:00 +15°C° 0.1 mm 1 mps 659 mmHg 89%
    08:00 +16°C° 0.1 mm 2 mps 659 mmHg 86%
    09:00 +17°C° 0.1 mm 2 mps 660 mmHg 82%
    10:00 +18°C° 0 mm 2 mps 659 mmHg 76%
    11:00 +19°C° 0 mm 3 mps 659 mmHg 70%
    12:00 +21°C° 0 mm 3 mps 659 mmHg 64%
    13:00 +21°C° 0.2 mm 3 mps 659 mmHg 65%
    14:00 +20°C° 0.2 mm 3 mps 658 mmHg 66%
    15:00 +20°C° 0.2 mm 2 mps 658 mmHg 67%
    16:00 +19°C° 0 mm 2 mps 657 mmHg 72%
    17:00 +18°C° 0 mm 2 mps 657 mmHg 76%
    18:00 +18°C° 0 mm 2 mps 656 mmHg 81%
    19:00 +18°C° 0.1 mm 1 mps 657 mmHg 82%
    20:00 +18°C° 0.1 mm 1 mps 657 mmHg 84%
    21:00 +18°C° 0.1 mm 1 mps 657 mmHg 86%
    22:00 +16°C° 0 mm 1 mps 657 mmHg 88%
    23:00 +16°C° 0 mm 1 mps 657 mmHg 90%

    31 August, Saturday

    Time Temperature Precipitation Wind Pressure Humidity
    00:00 +16°C° 0 mm 1 mps 656 mmHg 93%
    01:00 +15°C° 0 mm 1 mps 656 mmHg 93%
    02:00 +15°C° 0 mm 1 mps 656 mmHg 94%
    03:00 +15°C° 0 mm 1 mps 656 mmHg 95%
    04:00 +15°C° 0 mm 1 mps 656 mmHg 95%
    05:00 +15°C° 0 mm 1 mps 657 mmHg 94%
    06:00 +15°C° 0 mm 1 mps 657 mmHg 94%
    07:00 +15°C° 0.1 mm 1 mps 657 mmHg 92%
    08:00 +16°C° 0.1 mm 2 mps 658 mmHg 89%
    09:00 +16°C° 0.1 mm 2 mps 658 mmHg 87%
    10:00 +16°C° 0.1 mm 2 mps 658 mmHg 85%
    11:00 +17°C° 0.1 mm 3 mps 658 mmHg 83%
    12:00 +17°C° 0.1 mm 3 mps 658 mmHg 81%
    13:00 +16°C° 0 mm 3 mps 658 mmHg 80%
    14:00 +16°C° 0 mm 3 mps 657 mmHg 80%
    15:00 +16°C° 0 mm 3 mps 657 mmHg 79%
    16:00 +14°C° 0.1 mm 3 mps 657 mmHg 82%
    17:00 +15°C° 0.1 mm 2 mps 657 mmHg 85%
    18:00 +14°C° 0.1 mm 2 mps 658 mmHg 88%
    19:00 +14°C° 0.1 mm 2 mps 658 mmHg 89%
    20:00 +14°C° 0.1 mm 2 mps 659 mmHg 90%
    21:00 +14°C° 0.1 mm 2 mps 659 mmHg 91%
    22:00 +13°C° 0.1 mm 2 mps 659 mmHg 92%
    23:00 +13°C° 0.1 mm 2 mps 659 mmHg 92%
    Show more